Location: *
(33.8649°S, 62.1526°E)
Time: 13:10:29
(UTC+00:00)

ADEOS II - Pass Details

Date: 17 January 2021
Orbit: 799 x 801 km, 98.6° (Epoch: 03 March)

Event Time Altitude Azimuth Distance (km) Brightness Sun altitude
Exits shadow 22:16:32 21° 240° (WSW) 1,735 3.7 -26.8°
Drops below altitude 10° 22:18:54 10° 218° (SW) 2,400 4.7 -26.5°
Sets 22:21:35 0° 206° (SSW) 3,339 5.7 -26.2°
